Overview Statistics Trail Chart Weather Telemetry Raw packets
 

This is the latest recevied weather packets stored in our database for station/object ES0THZ-13. If no packets are shown the sender has not sent any weather packets the latest 10 day(s).

<< 25 26 27 28 29 30 31 >>
Time Temp. Humidity Pressure Rain* Wind** Luminosity Snow
1787915076 23.33° C 73% 1019.2 hPa - - - -
1787914021 23.89° C 73% 1019.6 hPa - - - -
1787912867 23.89° C 74% 1019.9 hPa - - - -
1787911724 23.33° C 74% 1018.9 hPa - - - -
1787910675 23.89° C 75% 1019.4 hPa - - - -
1787909611 24.44° C 75% 1020.1 hPa - - - -
1787908576 23.89° C 76% 1019.6 hPa - - - -
1787907421 23.33° C 77% 1019.2 hPa - - - -
1787906401 23.33° C 78% 1019.4 hPa - - - -
1787905341 22.78° C 79% 1019.4 hPa - - - -
1787904349 21.67° C 79% 1020.2 hPa - - - -
1787903251 21.11° C 80% 1020.4 hPa - - - -
1787902216 21.11° C 81% 1020.2 hPa - - - -
1787901041 21.67° C 82% 1019.5 hPa - - - -
1787899984 21.11° C 82% 1019.8 hPa - - - -
1787898993 20° C 83% 1019.3 hPa - - - -
1787897896 20° C 83% 1020.5 hPa - - - -
1787896871 18.89° C 84% 1018.9 hPa - - - -
1787895837 18.33° C 85% 1019.1 hPa - - - -
1787894731 17.78° C 85% 1019.5 hPa - - - -
1787893691 17.78° C 85% 1020.1 hPa - - - -
1787892656 17.78° C 85% 1020.4 hPa - - - -
1787891561 17.22° C 85% 1020.2 hPa - - - -
1787890441 17.22° C 85% 1020.9 hPa - - - -
1787889407 17.22° C 85% 1020.2 hPa - - - -

* Rain since midnight (hover to see other rain measurements)
** Current wind speed in m/s (hover to see current wind gust speed)